Regional Weather Roundup
Issued by NWS

Home | Current Version | Previous Version | Text Only | Print | Product List | Glossary On
Versions: 1 2 3 4 5 6 7 8 9 10 11 12 13 14 15 16 17 18 19 20 21 22 23 24 25 26 27 28 29 30 31 32 33 34 35 36 37 38 39 40 41 42 43 44 45 46 47 48 49 50
000
ASUS44 KJAN 220210
RWRMS

MISSISSIPPI HOURLY WEATHER ROUNDUP
NATIONAL WEATHER SERVICE JACKSON MS
800 PM CST SAT JAN 21 2017

NOTE: "FAIR: INDICATES FEW OR NO CLOUDS BELOW 12,000 FEET WITH NO
SIGNIFICANT WEATHER AND/OR OBSTRUCTIONS TO VISIBILITY.

MSZ001>002-007>008-010>013-018>021-025>028-034>036-220300-
NORTHWEST MISSISSIPPI

CITY           SKY/WX    TMP DP  RH WIND       PRES   REMARKS
BATESVILLE     FAIR      58  54  85 CALM      29.54F
CLEVELAND      FAIR      65  60  84 SE9       29.48S
GREENWOOD      CLOUDY    63  54  72 E3        29.50F
GREENVILLE     CLOUDY    65  56  72 E13       29.45F
OLIVE BRANCH   CLOUDY   N/A N/A N/A CALM      29.56S
OXFORD         FAIR      59  54  82 E6        29.56F
TUNICA         CLOUDY    61  54  77 SE8       29.54F
WINONA         FAIR      62  56  80 CALM      29.52S
$$

MSZ003>006-009-014>017-022>024-029>033-037>039-220300-
NORTHEAST MISSISSIPPI

CITY           SKY/WX    TMP DP  RH WIND       PRES   REMARKS
COLUMBUS AFB   NOT AVBL
CORINTH        FAIR      59  54  82 CALM      29.58F
GOLDN TRIANGLE CLOUDY    63  54  72 SE14      29.50F
STARKVILLE     FAIR      61  55  82 E6        29.55F
TUPELO         CLOUDY    61  53  75 NE6       29.56F
$$

MSZ040-058-220300-
CENTRAL MISSISSIPPI

CITY           SKY/WX    TMP DP  RH WIND       PRES   REMARKS
JACKSON INTL   CLOUDY    68  59  73 SE10      29.48F
JACKSON HAWKNS CLOUDY    67  59  75 SE7       29.48F
MADISON        FAIR      63  59  88 CALM      29.49F
MERIDIAN KEY   CLOUDY    68  61  78 E8        29.53F
MERIDIAN NAS   CLOUDY    64  56  75 E8        29.55F
RAYMOND        FAIR      66  61  82 E9        29.47F
VICKSBURG VKS  CLOUDY    68  61  77 SE6       29.45F
$$

MSZ059>079-220300-
SOUTH MISSISSIPPI

CITY           SKY/WX    TMP DP  RH WIND       PRES   REMARKS
HATTIESBURG    CLOUDY    69  65  86 E8        29.52F
LAUREL         CLOUDY    67  67 100 SE6       29.52F
MCCOMB         CLOUDY    68  63  84 S9        29.49F
NATCHEZ        CLOUDY    66  61  82 S10G30    29.48R THUNDER
PINE BELT      CLOUDY    68  61  77 SE9       29.54F
$$

MSZ080>082-220300-
COASTAL MISSISSIPPI

CITY           SKY/WX    TMP DP  RH WIND       PRES   REMARKS
BAY ST LOUIS   CLOUDY    72  66  83 S10G18    29.52F
BILOXI         CLOUDY    70  69  97 S17G23    29.52F
PASCAGOULA     CLOUDY    72  69  90 S14G25    29.54F
GULFPORT       CLOUDY    70  70 100 S12G23    29.52F FOG
$$

LAZ007>009-015>016-023>026-220300-
NORTHEAST LOUISIANA

CITY           SKY/WX    TMP DP  RH WIND       PRES   REMARKS
BASTROP        MOCLDY    65  64  97 SE5       29.42F
TALLULAH/VBURG CLOUDY    67  60  78 SE8       29.45F
VIDALIA        TSTM      66  63  90 NW7       29.50R
$$



USA.gov is the U.S. government's official web portal to all federal, state and local government web resources and services.